Voltar ao catálogo

THORAD DELTA 1 DEB

AtivoSSO
NORAD 42595·DEBRIS·🇺🇸 United States

Lançado Nov 15, 1974 de Vandenberg Space Force Base

Loading…

Próximas Passagens (próximas 24 horas)

TLE

AtualizadoSource: Space-Track

Época: Sep 13, 2026, 09:00 UTC

1 42595U 74089FL  26256.37535797  .00000024  00000-0  46135-3 0  9998
2 42595 101.6716 224.8475 0039841 143.7841 216.5936 12.46736739582953

Acompanhe THORAD DELTA 1 DEB em tempo real com AllMySat

Download on the App Store